[[{"header":{"parameterUnit":"m.s-1","parameterCategory":1,"la1":30.2991,"la2":30.254,"lo1":-89.0895,"lo2":-89.0444,"dy":0.0017,"dx":0.0017,"nx":28,"ny":28,"refTime":"2023-08-28T03:00:00:Z","depth":0,"parameterNumber":2,"parameterNumberName":"U-component_of_WINDS"},"data":[0,0,0,0,0,0,0,0,0,0,0,0,0,0,0,0,0,0,0,0,0,0,0,0,0,0,0,0,0,0,0,0,0,0,0,0,0,0,0,0,0,0,0,0,0,0,0,0,0,0,0,0,0,0,0,0,0,0,-0.6334,-0.6335,0,-0.6508,-0.651,-0.6512,-0.6589,-0.6588,-0.6588,-0.6588,-0.6769,-0.6774,-0.6779,0,0,0,0,0,0,0,0,0,0,0,0,0,-0.6069,-0.6073,-0.6333,-0.6336,-0.6338,-0.6508,-0.651,-0.6513,-0.6589,-0.6588,-0.6588,-0.6588,-0.6767,-0.6773,-0.6779,0,0,0,0,0,0,0,0,0,0,0,0,0,-0.6207,-0.6074,-0.6333,-0.6396,-0.6403,-0.6507,-0.651,-0.6513,-0.6589,-0.6588,-0.6588,-0.6588,-0.6765,-0.6773,-0.678,-0.6835,0,0,-0.6803,-0.6807,0,0,0,0,0,0,0,0,-0.6199,-0.6217,-0.6385,-0.6392,-0.64,-0.6526,-0.6483,-0.6621,-0.6589,-0.6518,-0.6588,-0.6587,-0.6689,-0.6702,-0.6736,-0.6843,-0.6851,-0.6804,-0.6809,-0.6812,-0.6814,0,0,0,0,0,0,0,-0.619,-0.621,-0.6403,-0.6387,-0.6397,-0.6417,-0.6436,-0.651,-0.6604,-0.6525,-0.653,-0.655,-0.6693,-0.6729,-0.6741,-0.6854,-0.6804,-0.6811,-0.6815,-0.6818,-0.7018,-0.7018,0,0,0,0,0,0,-0.6169,-0.6201,-0.6397,-0.6408,-0.6297,-0.6422,-0.6443,-0.6486,-0.6603,-0.662,-0.655,-0.6553,-0.6716,-0.6732,-0.6748,-0.6822,-0.6812,-0.6819,-0.6823,-0.7017,-0.7018,-0.7019,0,0,0,0,0,0,-0.6163,-0.6186,-0.639,-0.6306,-0.6334,-0.6427,-0.6474,-0.649,-0.6526,-0.6622,-0.664,-0.6569,-0.6716,-0.6737,-0.6813,-0.6829,-0.6822,-0.6829,-0.7016,-0.7017,-0.7018,-0.6968,0,0,0,0,0,0,-0.6155,-0.6183,-0.6204,-0.6306,-0.6338,-0.6451,-0.6475,-0.6494,-0.6538,-0.6544,-0.6645,-0.6661,-0.6717,-0.6801,-0.6821,-0.6839,-0.6835,-0.7015,-0.7017,-0.7018,-0.6969,-0.6967,-0.6966,0,0,0,0,0,-0.6146,-0.6183,-0.6205,-0.6228,-0.6366,-0.6452,-0.647,-0.6533,-0.6539,-0.6562,-0.6624,-0.6658,-0.6823,-0.6808,-0.6831,-0.6852,-0.7014,-0.7016,-0.7018,-0.697,-0.6968,-0.6966,0,0,0,0,0,0,-0.6082,-0.6198,-0.6223,-0.6295,-0.6363,-0.6465,-0.6495,-0.6529,-0.6598,-0.66,-0.6676,-0.6698,-0.6768,-0.6818,-0.6799,-0.6912,-0.6922,-0.6928,-0.6878,-0.6877,-0.6875,-0.6863,-0.6842,0,0,0,0,0,-0.6076,-0.6135,-0.6234,-0.6287,-0.632,-0.6401,-0.6441,-0.6484,-0.6558,-0.6587,-0.6655,-0.6727,-0.6795,-0.6838,-0.6906,-0.6976,-0.7001,-0.7002,-0.7,-0.6999,-0.7004,-0.7047,-0.7049,-0.7024,-0.7024,-0.7024,0,0,-0.6064,-0.6135,-0.6168,-0.6276,-0.6334,-0.6395,-0.6425,-0.6488,-0.6535,-0.6597,-0.6674,-0.6726,-0.6811,-0.6884,-0.692,-0.6928,-0.7016,-0.7001,-0.6999,-0.7005,-0.7049,-0.7051,-0.7053,-0.7025,-0.7025,-0.7025,0,0,-0.6075,-0.6134,-0.6186,-0.6243,-0.633,-0.6384,-0.6397,-0.6494,-0.6531,-0.6608,-0.6657,-0.6714,-0.6829,-0.6889,-0.6934,-0.6968,-0.7003,-0.6988,-0.6981,-0.7022,-0.7024,-0.7027,-0.7041,-0.7045,-0.6992,-0.6992,-0.6992,0,-0.6051,-0.6143,-0.6208,-0.6269,-0.6316,-0.6375,-0.6429,-0.6482,-0.6587,-0.6619,-0.6625,-0.6773,-0.6834,-0.6923,-0.6931,-0.6965,-0.6983,-0.6977,-0.7019,-0.7022,-0.7025,-0.7039,-0.7044,-0.699,-0.699,-0.699,-0.699,0,-0.611,-0.6173,-0.6205,-0.6305,-0.6355,-0.6412,-0.6487,-0.6531,-0.6569,-0.6623,-0.6702,-0.6777,-0.6863,-0.6887,-0.6925,-0.6982,-0.6985,-0.7004,-0.7015,-0.7024,-0.7039,-0.7045,-0.6987,-0.6987,-0.6988,-0.6989,0,0,-0.6086,-0.6221,-0.6231,-0.6278,-0.6379,-0.643,-0.649,-0.6573,-0.661,-0.668,-0.6735,-0.6831,-0.685,-0.6901,-0.6947,-0.6982,-0.7008,-0.6998,-0.7001,-0.6999,-0.7079,-0.7065,-0.707,-0.703,-0.7032,-0.7033,-0.7072,0,-0.6112,-0.6221,-0.6282,-0.6367,-0.6428,-0.6485,-0.6539,-0.6607,-0.6659,-0.6719,-0.6777,-0.6845,-0.6864,-0.6895,-0.6933,-0.6996,-0.7025,-0.6994,-0.7084,-0.7086,-0.7063,-0.7078,-0.7064,-0.7097,-0.7079,-0.708,-0.708,0,-0.6157,-0.6226,-0.6317,-0.6412,-0.644,-0.6486,-0.6568,-0.6624,-0.6704,-0.6739,-0.6797,-0.6842,-0.691,-0.6915,-0.7011,-0.6988,-0.7029,-0.7066,-0.7069,-0.7081,-0.7085,-0.7093,-0.7109,-0.7115,-0.709,-0.7089,-0.7088,0,-0.6132,-0.6248,-0.6318,-0.6356,-0.6469,-0.65,-0.6549,-0.6628,-0.6674,-0.6746,-0.6778,-0.6856,-0.69,-0.6961,-0.7027,-0.7024,-0.7117,-0.7127,-0.7151,-0.7149,-0.7169,-0.7167,-0.7194,-0.7191,-0.7191,-0.7191,-0.7191,0,-0.6156,-0.621,-0.6309,-0.6352,-0.6415,-0.6485,-0.6546,-0.6599,-0.6669,-0.6725,-0.6779,-0.6831,-0.6914,-0.6976,-0.7028,-0.7102,-0.712,-0.7153,-0.7166,-0.7149,-0.7145,-0.7178,-0.7178,-0.7192,-0.7192,-0.7192,-0.7191,0,-0.614,-0.6208,-0.6289,-0.6388,-0.6415,-0.6457,-0.6543,-0.6589,-0.6643,-0.6714,-0.6734,-0.6821,-0.6897,-0.6969,-0.7071,-0.7106,-0.7181,-0.7197,-0.7154,-0.7162,-0.7182,-0.718,-0.7233,-0.7245,-0.7231,-0.7231,-0.7231,0,-0.6151,-0.6194,-0.6298,-0.6339,-0.6387,-0.6452,-0.65,-0.6571,-0.6619,-0.6713,-0.6747,-0.6828,-0.6896,-0.7016,-0.7089,-0.7169,-0.7189,-0.7202,-0.7201,-0.7183,-0.7192,-0.719,-0.7196,-0.7201,-0.7201,-0.7201,-0.72,0,-0.6165,-0.6197,-0.6263,-0.6342,-0.6397,-0.6463,-0.653,-0.6561,-0.6645,-0.6697,-0.6775,-0.6828,-0.6933,-0.7013,-0.7101,-0.7153,-0.7192,-0.72,-0.721,-0.7194,-0.7168,-0.7185,-0.7153,-0.7199,-0.7199,-0.7199,-0.7199,-0.7199,-0.6165,-0.6206,-0.6286,-0.6359,-0.6417,-0.6479,-0.6527,-0.6588,-0.6655,-0.6745,-0.6783,-0.6864,-0.6945,-0.7066,-0.7118,-0.7183,-0.7192,-0.7206,-0.721,-0.7213,-0.7211,-0.7156,-0.7199,-0.72,-0.72,-0.72,-0.72,0,-0.6183,-0.6237,-0.6303,-0.6396,-0.6454,-0.6484,-0.6561,-0.6608,-0.6677,-0.6749,-0.6815,-0.6907,-0.6985,-0.7065,-0.7148,-0.7186,-0.7206,-0.7205,-0.7205,-0.7217,-0.7197,-0.7181,-0.7188,-0.7188,-0.7188,-0.7188,-0.7188,-0.7188,-0.6199,-0.6272,-0.6313,-0.6416,-0.6471,-0.655,-0.6592,-0.665,-0.6708,-0.6808,-0.6873,-0.6924,-0.7,-0.7089,-0.7164,-0.7185,-0.7215,-0.721,-0.7237,-0.7217,-0.7218,-0.7218,-0.7203,-0.7215,-0.7215,-0.7252,-0.7252,-0.7252]},{"header":{"parameterUnit":"m.s-1","parameterCategory":1,"la1":30.2991,"la2":30.254,"lo1":-89.0895,"lo2":-89.0444,"dy":0.0017,"dx":0.0017,"nx":28,"ny":28,"refTime":"2023-08-28T03:00:00:Z","depth":0,"parameterNumber":3,"parameterNumberName":"V-component_of_WINDS"},"data":[0,0,0,0,0,0,0,0,0,0,0,0,0,0,0,0,0,0,0,0,0,0,0,0,0,0,0,0,0,0,0,0,0,0,0,0,0,0,0,0,0,0,0,0,0,0,0,0,0,0,0,0,0,0,0,0,0,0,1.685,1.685,0,1.6919,1.692,1.692,1.6946,1.6946,1.6946,1.6945,1.701,1.7012,1.7014,0,0,0,0,0,0,0,0,0,0,0,0,0,1.673,1.6732,1.6849,1.685,1.6851,1.6919,1.692,1.6921,1.6946,1.6946,1.6946,1.6945,1.7009,1.7012,1.7014,0,0,0,0,0,0,0,0,0,0,0,0,0,1.6789,1.6733,1.6849,1.6872,1.6875,1.6919,1.692,1.6921,1.6946,1.6946,1.6946,1.6945,1.7009,1.7011,1.7014,1.7038,0,0,1.7023,1.7024,0,0,0,0,0,0,0,0,1.6785,1.6793,1.6868,1.6871,1.6874,1.6924,1.6901,1.696,1.6946,1.6919,1.6945,1.6945,1.6981,1.6986,1.7,1.7041,1.7044,1.7023,1.7025,1.7026,1.7027,0,0,0,0,0,0,0,1.6781,1.679,1.6877,1.6869,1.6873,1.6876,1.6884,1.6913,1.6951,1.6921,1.6923,1.6932,1.6982,1.6997,1.7001,1.7045,1.7023,1.7026,1.7027,1.7028,1.7106,1.7106,0,0,0,0,0,0,1.6775,1.6787,1.6875,1.6879,1.6828,1.6878,1.6887,1.6908,1.695,1.6957,1.6932,1.6932,1.6992,1.6998,1.7004,1.7033,1.7026,1.7029,1.703,1.7105,1.7106,1.7106,0,0,0,0,0,0,1.6772,1.6782,1.6872,1.6833,1.6845,1.6881,1.6904,1.6909,1.6924,1.6959,1.6965,1.694,1.6992,1.7,1.7029,1.7035,1.703,1.7033,1.7105,1.7105,1.7106,1.7092,0,0,0,0,0,0,1.6768,1.6781,1.6793,1.6834,1.6847,1.6899,1.6904,1.6911,1.693,1.6931,1.6968,1.6973,1.6992,1.7025,1.7032,1.7039,1.7035,1.7104,1.7105,1.7106,1.7092,1.7092,1.7092,0,0,0,0,0,1.6764,1.6786,1.6794,1.6804,1.6863,1.6899,1.6906,1.693,1.693,1.694,1.6962,1.6972,1.7033,1.7027,1.7036,1.7044,1.7104,1.7105,1.7106,1.7092,1.7092,1.7092,0,0,0,0,0,0,1.6743,1.6791,1.6801,1.6837,1.6864,1.6903,1.6918,1.6929,1.6955,1.6956,1.6981,1.6989,1.7016,1.7033,1.7025,1.7068,1.7069,1.7072,1.7056,1.7056,1.7056,1.7051,1.7037,0,0,0,0,0,1.6743,1.6771,1.681,1.6838,1.6851,1.6882,1.6898,1.6914,1.6942,1.6953,1.6977,1.7002,1.7026,1.7042,1.7067,1.7094,1.7101,1.7104,1.7104,1.7103,1.7105,1.7118,1.7119,1.7108,1.7108,1.7108,0,0,1.6743,1.6772,1.6788,1.6834,1.6857,1.6883,1.6891,1.6918,1.6936,1.6956,1.6986,1.7004,1.7033,1.7061,1.7074,1.7076,1.711,1.7104,1.7104,1.7106,1.7119,1.712,1.7121,1.7109,1.7109,1.7109,0,0,1.6755,1.6781,1.6806,1.6828,1.6863,1.6883,1.6888,1.6926,1.6939,1.697,1.6984,1.7004,1.7047,1.7067,1.7082,1.7098,1.7107,1.7105,1.7104,1.7117,1.7118,1.7119,1.7123,1.7124,1.7106,1.7106,1.7106,0,1.6749,1.6791,1.6816,1.6843,1.6861,1.6881,1.6904,1.6924,1.6964,1.6975,1.6977,1.7029,1.705,1.7082,1.7085,1.7098,1.7103,1.7101,1.7116,1.7117,1.7118,1.7123,1.7124,1.7106,1.7106,1.7106,1.7106,0,1.6781,1.6809,1.6824,1.6864,1.6884,1.6908,1.6935,1.6951,1.6964,1.6982,1.7011,1.7037,1.7066,1.7074,1.7087,1.7107,1.7107,1.7112,1.7114,1.7118,1.7123,1.7125,1.7105,1.7105,1.7105,1.7105,0,0,1.6784,1.6836,1.6841,1.6858,1.6897,1.6917,1.694,1.6971,1.6983,1.7009,1.7028,1.7062,1.7066,1.7084,1.7098,1.7109,1.7117,1.7112,1.7113,1.7112,1.7139,1.7135,1.7136,1.7124,1.7124,1.7124,1.7136,0,1.68,1.6846,1.6868,1.6903,1.6927,1.6945,1.6965,1.6989,1.7006,1.7027,1.7045,1.7068,1.7073,1.7083,1.7095,1.7114,1.7123,1.7113,1.7139,1.714,1.7132,1.7139,1.7135,1.7145,1.7138,1.7138,1.7139,0,1.6826,1.6853,1.6891,1.6924,1.6935,1.6953,1.6981,1.7001,1.7027,1.7039,1.7057,1.707,1.7092,1.7092,1.7121,1.7114,1.7126,1.7136,1.7137,1.714,1.714,1.7142,1.7149,1.715,1.7142,1.7142,1.7141,0,1.6822,1.6868,1.6896,1.691,1.695,1.6961,1.6978,1.7004,1.702,1.7043,1.7053,1.7078,1.7091,1.7109,1.7127,1.7126,1.7154,1.7156,1.7162,1.7162,1.7168,1.7167,1.7177,1.7175,1.7175,1.7175,1.7175,0,1.6838,1.686,1.6895,1.6912,1.6935,1.6959,1.6981,1.6999,1.7021,1.704,1.7056,1.7072,1.7096,1.7114,1.7129,1.715,1.7156,1.7164,1.7167,1.7162,1.7161,1.717,1.717,1.7176,1.7176,1.7176,1.7176,0,1.6838,1.6863,1.6894,1.6929,1.6938,1.6954,1.6982,1.6998,1.7015,1.7038,1.7045,1.7071,1.7093,1.7114,1.7143,1.7152,1.7173,1.7178,1.7165,1.7167,1.7172,1.7171,1.7188,1.719,1.7187,1.7187,1.7187,0,1.6847,1.6864,1.6901,1.6915,1.6932,1.6955,1.6971,1.6994,1.7009,1.7039,1.705,1.7074,1.7095,1.7129,1.7149,1.7171,1.7176,1.718,1.7179,1.7173,1.7175,1.7174,1.7175,1.718,1.718,1.718,1.718,0,1.6858,1.6869,1.6893,1.6921,1.694,1.6962,1.6984,1.6995,1.702,1.7037,1.7061,1.7077,1.7107,1.713,1.7154,1.7168,1.7177,1.718,1.7182,1.7178,1.7169,1.7173,1.7164,1.7179,1.718,1.718,1.718,1.718,1.6862,1.6878,1.6906,1.6931,1.695,1.697,1.6986,1.7005,1.7027,1.7054,1.7065,1.7089,1.7111,1.7145,1.7159,1.7176,1.7178,1.7182,1.7182,1.7183,1.7182,1.7166,1.718,1.718,1.718,1.718,1.718,0,1.6874,1.6892,1.6915,1.6947,1.6966,1.6974,1.6999,1.7014,1.7035,1.7056,1.7076,1.7102,1.7124,1.7145,1.7167,1.7177,1.7181,1.7181,1.7181,1.7184,1.7179,1.7175,1.7177,1.7177,1.7177,1.7177,1.7177,1.7177,1.6882,1.6908,1.6922,1.6956,1.6974,1.6999,1.7012,1.7029,1.7046,1.7075,1.7094,1.7108,1.7128,1.7152,1.7171,1.7176,1.7183,1.7182,1.7189,1.7184,1.7184,1.7184,1.718,1.7184,1.7184,1.7192,1.7192,1.7192]}]]